Location: Tel Aviv
(32.0670°N, 34.7670°E)
Time: 02:34:21
(UTC+03:00)

Vanguard 2 - Pass Details

Date: 31 January 2022
Orbit: 552 x 2935 km, 32.9° (Epoch: 26 May)

Event Time Altitude Azimuth Distance (km) Brightness Sun altitude
Rises 00:46:45 0° 283° (WNW) 5,382 - -71.2°
Reaches altitude 10° 00:50:08 10° 276° (W) 4,672 - -70.7°
Maximum altitude 01:02:53 42° 212° (SSW) 3,508 - -68.7°
Drops below altitude 10° 01:18:51 10° 149° (SSE) 5,747 - -66.0°
Exits shadow 01:18:59 10° 149° (SSE) 5,774 11.9 -65.9°
Sets 01:23:40 0° 143° (SE) 6,688 12.4 -65.1°
